Location: NJAA Observatory
(40.6819°N, 74.8979°W)
Time: 08:15:50
(UTC-04:00)

Courier 1B - All Passes

Search period start: 22 June 2017 00:00
Search period end: 02 July 2017 00:00
Orbit: 962 x 1209 km, 28.3° (Epoch: 21 June)

Date Brightness Start Highest point End Pass type
(mag) Time Alt. Az. Time Alt. Az. Time Alt. Az.
22 Jun - 01:48:43 10° SSW 01:52:55 18° SSE 01:57:10 10° ESE visible
22 Jun - 03:40:34 10° SW 03:46:00 28° S 03:51:38 10° ESE visible
22 Jun - 05:33:52 10° WSW 05:39:14 26° S 05:44:52 10° SE daylight
22 Jun - 07:28:56 10° SW 07:32:25 14° SSW 07:36:01 10° S daylight
23 Jun - 00:56:07 10° S 00:59:27 14° SSE 01:02:48 10° SE visible
23 Jun - 02:47:15 10° SW 02:52:28 26° S 02:57:50 10° ESE visible
23 Jun - 04:40:15 10° WSW 04:45:41 27° S 04:51:19 10° SE visible
23 Jun - 06:34:38 10° WSW 06:38:52 17° SSW 06:43:14 10° SSE daylight
24 Jun - 00:04:17 10° S 00:06:01 11° SSE 00:07:44 10° SE night (unlit)
24 Jun - 01:54:01 10° SW 01:58:57 23° SSE 02:03:58 10° ESE visible
24 Jun - 03:46:43 10° WSW 03:52:07 28° S 03:57:43 10° SE visible
24 Jun - 05:40:39 10° WSW 05:45:19 20° SSW 05:50:10 10° SSE daylight
25 Jun - 01:00:55 10° SSW 01:05:29 20° SSE 01:10:04 10° ESE visible
25 Jun - 02:53:14 10° SW 02:58:35 27° S 03:04:04 10° ESE visible
25 Jun - 04:46:49 10° WSW 04:51:46 23° SSW 04:56:54 10° SE visible
25 Jun - 06:43:23 10° SW 06:44:51 11° SSW 06:46:20 10° SSW daylight
26 Jun - 00:07:59 10° SSW 00:12:00 17° SSE 00:16:00 10° ESE night (unlit)
26 Jun - 01:59:49 10° SW 02:05:05 27° S 02:10:23 10° ESE visible
26 Jun - 03:53:08 10° WSW 03:58:15 25° S 04:03:31 10° SE visible
26 Jun - 05:48:11 10° SW 05:51:20 14° SSW 05:54:33 10° S daylight
26 Jun - 23:15:22 10° S 23:18:33 14° SSE 23:21:42 10° SE night (unlit)
27 Jun - 01:06:27 10° SW 01:11:34 25° S 01:16:42 10° ESE visible
27 Jun - 02:59:30 10° WSW 03:04:43 26° S 03:10:04 10° SE visible
27 Jun - 04:53:53 10° WSW 04:57:50 17° SSW 05:01:53 10° SSE visible
27 Jun - 22:23:32 10° S 22:25:05 11° SSE 22:26:37 10° SE visible
28 Jun - 00:13:09 10° SW 00:18:04 23° SSE 00:22:56 10° ESE night (unlit)
28 Jun - 02:05:54 10° WSW 02:11:13 27° S 02:16:33 10° SE visible
28 Jun - 03:59:52 10° WSW 04:04:20 20° SSW 04:08:53 10° SSE visible
28 Jun - 23:19:58 10° SSW 23:24:35 20° SSE 23:29:06 10° ESE visible
29 Jun - 01:12:22 10° SW 01:17:42 27° S 01:23:01 10° ESE night (unlit)
29 Jun - 03:06:01 10° WSW 03:10:51 22° SSW 03:15:44 10° SE visible
29 Jun - 05:02:49 10° SW 05:03:50 10° SSW 05:04:51 10° SSW visible
29 Jun - 22:26:57 10° SSW 22:31:05 17° SSE 22:35:08 10° ESE visible
30 Jun - 00:18:51 10° SW 00:24:11 26° S 00:29:26 10° ESE night (unlit)
30 Jun - 02:12:16 10° WSW 02:17:21 25° S 02:22:26 10° SE visible
30 Jun - 04:07:23 10° SW 04:10:22 13° SSW 04:13:23 10° S visible
30 Jun - 21:34:13 10° S 21:37:35 14° SSE 21:40:52 10° SE visible
30 Jun - 23:25:24 10° SW 23:30:40 25° S 23:35:49 10° ESE visible
01 Jul - 01:18:33 10° WSW 01:23:50 26° S 01:29:05 10° SE night (unlit)
01 Jul - 03:13:01 10° WSW 03:16:54 17° SSW 03:20:49 10° SSE visible
01 Jul - 20:42:11 10° S 20:44:04 11° SSE 20:45:56 10° SE daylight
01 Jul - 22:32:00 10° SW 22:37:09 23° SSE 22:42:07 10° ESE visible
